Powrót do katalogu

TEVEL2-6

AktywnyKrótkofalarstwoSSO
NORAD 63215·PAYLOAD·🇮🇱 Israel

Wystrzelony Mar 15, 2025 z Vandenberg Space Force Base

Loading…

Następne Przeloty (najbliższe 24 godziny)

TLE

ŚwieżeSource: AMSAT

Epoka: Sep 14, 2026, 03:33 UTC

1 63215U 25052F   26257.14822892  .00014678  00000-0  40406-3 0  9992
2 63215  97.3764 153.7166 0003909 121.9941 238.1684 15.37256625 83760

Śledź TEVEL2-6 w czasie rzeczywistym z AllMySat

Download on the App Store